TimeMST,TemperatureF,Dew PointF,Humidity,Sea Level PressureIn,VisibilityMPH,Wind Direction,Wind SpeedMPH,Gust SpeedMPH,PrecipitationIn,Events,Conditions,WindDirDegrees,DateUTC
12:51 AM,37.0,21.0,52,30.31,10.0,NNE,5.8,-,N/A,,Clear,20,2013-01-18 07:51:00
1:51 AM,34.0,19.9,56,30.31,10.0,North,4.6,-,N/A,,Clear,10,2013-01-18 08:51:00
2:51 AM,32.0,19.9,61,30.30,10.0,NNE,5.8,-,N/A,,Clear,30,2013-01-18 09:51:00
3:51 AM,30.9,19.9,64,30.29,10.0,NNE,8.1,-,N/A,,Clear,20,2013-01-18 10:51:00
4:51 AM,32.0,21.0,64,30.28,10.0,NNE,8.1,-,N/A,,Clear,20,2013-01-18 11:51:00
5:51 AM,32.0,21.0,64,30.30,10.0,North,10.4,-,N/A,,Clear,10,2013-01-18 12:51:00
6:51 AM,32.0,21.0,64,30.32,10.0,North,9.2,-,N/A,,Partly Cloudy,10,2013-01-18 13:51:00
7:51 AM,34.0,21.0,59,30.32,10.0,NNE,8.1,-,N/A,,Scattered Clouds,20,2013-01-18 14:51:00
8:51 AM,39.0,21.9,50,30.33,10.0,North,6.9,-,N/A,,Scattered Clouds,10,2013-01-18 15:51:00
9:51 AM,44.1,21.9,42,30.34,10.0,North,5.8,-,N/A,,Scattered Clouds,10,2013-01-18 16:51:00
10:51 AM,48.9,21.0,33,30.31,10.0,Calm,Calm,-,N/A,,Partly Cloudy,0,2013-01-18 17:51:00
11:51 AM,52.0,19.9,28,30.27,10.0,Calm,Calm,-,N/A,,Partly Cloudy,0,2013-01-18 18:51:00
12:51 PM,55.0,18.0,23,30.21,10.0,Calm,Calm,-,N/A,,Scattered Clouds,0,2013-01-18 19:51:00
1:51 PM,54.0,17.1,23,30.19,10.0,Calm,Calm,-,N/A,,Scattered Clouds,0,2013-01-18 20:51:00
2:51 PM,57.2,15.8,20,30.23,10.0,Calm,Calm,-,N/A,,Mostly Cloudy,0,2013-01-18 21:51:00
3:51 PM,57.0,14.0,18,30.17,10.0,Calm,Calm,-,N/A,,Mostly Cloudy,0,2013-01-18 22:51:00
4:51 PM,57.0,15.1,19,30.16,10.0,North,3.5,-,N/A,,Mostly Cloudy,10,2013-01-18 23:51:00
5:51 PM,53.1,16.0,23,30.18,10.0,Calm,Calm,-,N/A,,Mostly Cloudy,0,2013-01-19 00:51:00
6:51 PM,48.9,17.1,28,30.19,10.0,NNW,3.5,-,N/A,,Mostly Cloudy,340,2013-01-19 01:51:00
7:51 PM,46.0,18.0,33,30.20,10.0,North,3.5,-,N/A,,Mostly Cloudy,360,2013-01-19 02:51:00
8:51 PM,45.0,18.0,34,30.19,10.0,NE,5.8,-,N/A,,Mostly Cloudy,40,2013-01-19 03:51:00
9:51 PM,43.0,17.1,35,30.18,10.0,NNE,5.8,-,N/A,,Mostly Cloudy,30,2013-01-19 04:51:00
10:51 PM,39.9,18.0,41,30.17,10.0,Calm,Calm,-,N/A,,Mostly Cloudy,0,2013-01-19 05:51:00
11:51 PM,37.4,17.6,45,30.23,10.0,NNE,4.6,-,N/A,,Scattered Clouds,30,2013-01-19 06:51:00